sat.trackr.live / text

‹ back to catalog

STARLINK-34966

NORAD 65257 · 2025-179Y

PAYLOAD ACTIVE UNKNOWN

§ Identity

Operator
Country
US
Launch date
2025-08-18
Launch site
AFWTR
Launch vehicle
Mass (kg)
RCS (m²)

Purposes: comms

External: N2YO · Heavens-Above · Gunter

§ Orbital elements

Epoch: 2026-05-25T03:17:11.615136Z

Period
95.64 min
Inclination
97.4494°
Eccentricity
0.0000860
Mean motion
15.05648948 rev/d
Perigee alt
548.9 km
Apogee alt
550.1 km
Semi-major
6,927.7 km
B*
2.6251e-4
RAAN
187.9874°
Arg perigee
134.6318°
Mean anomaly
225.4980°
Rev number
4,343

§ Raw data

STARLINK-349661 65257U 25179Y   26145.13693999  .00003731  00000+0  26251-3 0  99982 65257  97.4494 187.9874 0000860 134.6318 225.4980 15.05648948 43432

JSON: /api/v1/satellites/65257 · /tle

For live sub-satellite position, see the globe view (requires WebGL).

§ Visibility from observer

Set your observer location to see the next 7 days of passes ≥ 10°. The values pass through the URL so the page stays shareable.

No JS? Fill the form by hand. The geolocation button needs JavaScript.